#timestamp,LO_Frequency,Hit,StdDev 
1609234215.2,286046987.3,P
1609234235.1,286046986.9,P
1609234236.0,286046986.9,P
1609234255.8,286046988.7,Y
1609234275.7,286047002.0,P
1609234295.5,286046999.9,N
1609234315.3,286047001.6,N
1609234335.2,286047003.5,N
1609234355.0,286047003.9,N
1609234355.9,286047003.9,N
1609234375.8,286047002.5,N
1609234395.6,286047004.4,N
1609234415.4,286047001.7,N
1609234435.3,286047003.1,N
1609234455.1,286047004.1,N
1609234475.8,286047001.4,N
1609234495.7,286047003.9,N
1609234515.5,286047004.2,N
1609234535.4,286047003.3,N
1609234555.2,286047005.3,N
1609234575.0,286047005.1,N
1609234575.9,286047005.1,N
1609234595.8,286047004.2,N
1609234615.6,286047003.1,N
1609234635.4,286047003.4,N
1609234655.3,286047004.6,N
1609234675.1,286047005.0,N
1609234695.9,286047005.2,N
1609234715.7,286047002.9,N
1609234735.5,286047001.9,N
1609234755.4,286047002.0,N
1609234775.2,286047003.5,N
1609234795.0,286047005.2,N
1609234795.9,286047005.2,N
1609234815.8,286047005.1,Y
1609234835.6,286047000.1,P
1609234855.5,286047001.7,N
1609234875.3,286047002.7,N
1609234895.1,286047000.9,N
1609234915.9,286046998.4,N
1609234935.7,286047000.9,N
1609234955.6,286047002.3,N
1609234975.4,286047000.7,N
1609234995.2,286047002.5,N
1609235015.1,286047002.5,N
1609235016.0,286047002.5,N
1609235035.8,286047001.2,N
1609235055.6,286046998.7,N
1609235075.5,286046998.6,N
1609235095.3,286046998.7,N
1609235115.2,286046998.8,N
1609235135.9,286046996.5,N
1609235155.7,286046997.4,N
1609235175.6,286046998.0,N
1609235195.4,286046995.1,N
1609235215.2,286046995.4,N
1609235235.1,286046995.5,N
1609235236.0,286046995.5,N
1609235255.8,286046996.1,N
1609235275.7,286046994.0,N
1609235295.5,286046995.1,N
1609235315.3,286046996.2,N
1609235335.2,286046996.2,N
1609235355.9,286046998.0,N
1609235375.7,286046999.2,N
1609235395.6,286046998.1,N
1609235415.4,286047001.0,N
1609235435.3,286046996.8,N
1609235455.1,286046996.1,N
1609235456.0,286046996.1,N
1609235475.8,286046995.5,N
1609235495.7,286046997.4,N
1609235515.5,286046996.8,N
1609235535.3,286046995.2,N
1609235555.2,286046994.9,N
1609235575.0,286046995.5,N
1609235575.9,286046995.5,N
1609235595.8,286046995.1,Y
1609235615.6,286046996.8,P
1609235635.4,286046999.6,P
1609235655.3,286046997.3,N
1609235675.1,286046996.2,Y
1609235695.9,286046998.4,P
1609235715.7,286046997.6,P
1609235735.5,286046997.1,P
1609235755.4,286046999.2,N
1609235775.2,286046998.2,N
1609235795.0,286046997.2,Y
1609235795.9,286046997.2,P
1609235815.8,286046998.9,N
1609235835.6,286046998.3,N
1609235855.5,286046998.7,N
1609235875.3,286046998.4,N
1609235895.1,286046998.5,N
1609235915.9,286046999.5,N
1609235935.7,286046999.2,N
1609235955.5,286047000.7,N
1609235975.4,286046999.5,N
1609235995.2,286047000.9,N
